Time,TemperatureF,DewpointF,PressureIn,WindDirection,WindDirectionDegrees,WindSpeedMPH,WindSpeedGustMPH,Humidity,HourlyPrecipIn,Conditions,Clouds,dailyrainin,SolarRadiationWatts/m^2,SoftwareType,DateUTC
2013-01-02 00:02:00,8.0,5.0,-100.00,North,6,5.0,7.0,86,0.00,,,0.02,0.000000,,2013-01-02 07:02:00,
2013-01-02 00:32:00,8.0,4.0,-100.00,NE,52,2.0,6.0,85,0.00,,,0.02,0.000000,,2013-01-02 07:32:00,
2013-01-02 00:42:00,8.0,4.0,-100.00,NE,52,2.0,6.0,85,0.00,,,0.02,0.000000,,2013-01-02 07:42:00,
2013-01-02 00:52:00,8.0,4.0,-100.00,NE,52,2.0,6.0,85,0.00,,,0.02,0.000000,,2013-01-02 07:52:00,
2013-01-02 01:02:00,8.0,4.0,-100.00,NE,52,2.0,6.0,85,0.00,,,0.02,0.000000,,2013-01-02 08:02:00,
2013-01-02 01:32:00,8.0,4.0,-100.00,NE,47,2.0,4.0,84,0.00,,,0.02,0.000000,,2013-01-02 08:32:00,
2013-01-02 01:42:00,8.0,4.0,-100.00,NE,47,2.0,4.0,84,0.00,,,0.02,0.000000,,2013-01-02 08:42:00,
2013-01-02 01:53:00,8.0,4.0,-100.00,NE,47,2.0,4.0,84,0.00,,,0.02,0.000000,,2013-01-02 08:53:00,
2013-01-02 02:02:00,8.0,4.0,-100.00,NE,47,2.0,4.0,84,0.00,,,0.02,0.000000,,2013-01-02 09:02:00,
2013-01-02 02:32:00,8.0,4.0,-100.00,North,350,2.0,4.0,84,0.00,,,0.02,0.000000,,2013-01-02 09:32:00,
2013-01-02 02:43:00,8.0,4.0,-100.00,North,350,2.0,4.0,84,0.00,,,0.02,0.000000,,2013-01-02 09:43:00,
2013-01-02 02:52:00,8.0,4.0,-100.00,North,350,2.0,4.0,84,0.00,,,0.02,0.000000,,2013-01-02 09:52:00,
2013-01-02 03:02:00,8.0,4.0,-100.00,North,350,2.0,4.0,84,0.00,,,0.02,0.000000,,2013-01-02 10:02:00,
2013-01-02 03:32:00,9.0,5.0,-100.00,NE,39,2.0,4.0,84,0.00,,,0.02,0.000000,,2013-01-02 10:32:00,
2013-01-02 03:42:00,9.0,5.0,-100.00,NE,39,2.0,4.0,84,0.00,,,0.02,0.000000,,2013-01-02 10:42:00,
2013-01-02 03:52:00,9.0,5.0,-100.00,NE,39,2.0,4.0,84,0.00,,,0.02,0.000000,,2013-01-02 10:52:00,
2013-01-02 04:02:00,9.0,5.0,-100.00,NE,39,2.0,4.0,84,0.00,,,0.02,0.000000,,2013-01-02 11:02:00,
2013-01-02 04:33:00,10.0,6.0,-100.00,NE,45,3.0,6.0,82,0.00,,,0.02,0.000000,,2013-01-02 11:33:00,
2013-01-02 04:43:00,10.0,6.0,-100.00,NE,45,3.0,6.0,82,0.00,,,0.02,0.000000,,2013-01-02 11:43:00,
2013-01-02 04:52:00,10.0,6.0,-100.00,NE,45,3.0,6.0,82,0.00,,,0.02,0.000000,,2013-01-02 11:52:00,
2013-01-02 05:02:00,10.0,6.0,-100.00,NE,45,3.0,6.0,82,0.00,,,0.02,0.000000,,2013-01-02 12:02:00,
2013-01-02 05:33:00,10.0,5.0,-100.00,SSE,155,3.0,4.0,80,0.00,,,0.02,0.000000,,2013-01-02 12:33:00,
2013-01-02 05:43:00,10.0,5.0,-100.00,SSE,155,3.0,4.0,80,0.00,,,0.02,0.000000,,2013-01-02 12:43:00,
2013-01-02 05:53:00,10.0,5.0,-100.00,SSE,155,3.0,4.0,80,0.00,,,0.02,0.000000,,2013-01-02 12:53:00,
2013-01-02 06:02:00,10.0,5.0,-100.00,SSE,155,3.0,4.0,80,0.00,,,0.02,0.000000,,2013-01-02 13:02:00,
2013-01-02 06:33:00,11.0,3.0,-100.00,ESE,105,5.0,7.0,68,0.00,,,0.02,0.000000,,2013-01-02 13:33:00,
2013-01-02 06:43:00,11.0,3.0,-100.00,ESE,105,5.0,7.0,68,0.00,,,0.02,0.000000,,2013-01-02 13:43:00,
2013-01-02 06:52:00,11.0,3.0,-100.00,ESE,105,5.0,7.0,68,0.00,,,0.02,0.000000,,2013-01-02 13:52:00,
2013-01-02 07:02:00,11.0,3.0,-100.00,ESE,105,5.0,7.0,68,0.00,,,0.02,0.000000,,2013-01-02 14:02:00,
2013-01-02 07:33:00,10.0,3.0,-100.00,North,11,4.0,6.0,72,0.00,,,0.02,0.000000,,2013-01-02 14:33:00,
2013-01-02 07:43:00,10.0,3.0,-100.00,North,11,4.0,6.0,72,0.00,,,0.02,0.000000,,2013-01-02 14:43:00,
2013-01-02 07:53:00,10.0,3.0,-100.00,North,11,4.0,6.0,72,0.00,,,0.02,0.000000,,2013-01-02 14:53:00,
2013-01-02 08:33:00,9.0,2.0,-100.00,NNE,12,5.0,6.0,72,-99.99,,,0.02,0.000000,,2013-01-02 15:33:00,
2013-01-02 08:43:00,9.0,2.0,-100.00,NNE,12,5.0,6.0,72,-99.99,,,0.02,0.000000,,2013-01-02 15:43:00,
2013-01-02 08:53:00,9.0,2.0,-100.00,NNE,12,5.0,6.0,72,-99.99,,,0.02,0.000000,,2013-01-02 15:53:00,
2013-01-02 09:02:00,9.0,2.0,-100.00,NNE,12,5.0,6.0,72,-99.99,,,0.02,0.000000,,2013-01-02 16:02:00,
2013-01-02 09:33:00,15.0,3.0,-100.00,North,2,4.0,6.0,59,0.00,,,0.02,52.000000,,2013-01-02 16:33:00,
2013-01-02 10:03:00,15.0,3.0,-100.00,North,2,4.0,6.0,59,0.00,,,0.02,52.000000,,2013-01-02 17:03:00,
2013-01-02 10:33:00,15.0,1.0,-100.00,North,1,5.0,6.0,53,0.00,,,0.02,136.000000,,2013-01-02 17:33:00,
2013-01-02 10:43:00,15.0,1.0,-100.00,North,1,5.0,6.0,53,0.00,,,0.02,136.000000,,2013-01-02 17:43:00,
2013-01-02 10:53:00,15.0,1.0,-100.00,North,1,5.0,6.0,53,0.00,,,0.02,136.000000,,2013-01-02 17:53:00,
2013-01-02 11:02:00,15.0,1.0,-100.00,North,1,5.0,6.0,53,0.00,,,0.02,136.000000,,2013-01-02 18:02:00,
2013-01-02 11:33:00,23.0,1.0,-100.00,North,5,6.0,7.0,37,0.00,,,0.02,260.000000,,2013-01-02 18:33:00,
2013-01-02 12:33:00,31.0,-2.0,-100.00,NW,324,3.0,5.0,24,-99.99,,,0.01,386.000000,,2013-01-02 19:33:00,
2013-01-02 13:33:00,35.0,9.0,-100.00,South,169,2.0,4.0,34,-99.99,,,0.00,419.000000,,2013-01-02 20:33:00,
2013-01-02 14:33:00,38.0,9.0,-100.00,South,175,2.0,4.0,29,-99.99,,,0.01,394.000000,,2013-01-02 21:33:00,
2013-01-02 15:32:00,33.0,5.0,-100.00,SSW,195,4.0,6.0,30,-99.99,,,0.02,334.000000,,2013-01-02 22:32:00,
2013-01-02 16:33:00,30.0,0.0,-100.00,SW,234,3.0,9.0,27,-99.99,,,0.02,199.000000,,2013-01-02 23:33:00,
2013-01-02 17:38:00,25.0,-1.0,-100.00,NNE,25,5.0,5.0,32,-99.99,,,0.02,48.000000,,2013-01-03 00:38:00,
2013-01-02 18:33:00,23.0,5.0,-100.00,NNE,16,4.0,6.0,45,-99.99,,,0.02,1.000000,,2013-01-03 01:33:00,
2013-01-02 19:33:00,20.0,7.0,-100.00,North,359,5.0,7.0,56,-99.99,,,0.02,0.000000,,2013-01-03 02:33:00,
2013-01-02 19:43:00,20.0,7.0,-100.00,North,359,5.0,7.0,56,-99.99,,,0.02,0.000000,,2013-01-03 02:43:00,
2013-01-02 19:52:00,20.0,7.0,-100.00,North,359,5.0,7.0,56,-99.99,,,0.02,0.000000,,2013-01-03 02:52:00,
2013-01-02 20:02:00,20.0,7.0,-100.00,North,359,5.0,7.0,56,-99.99,,,0.02,0.000000,,2013-01-03 03:02:00,
2013-01-02 20:47:00,20.0,7.0,-100.00,NNE,13,4.0,5.0,56,-99.99,,,0.02,0.000000,,2013-01-03 03:47:00,
2013-01-02 20:52:00,20.0,7.0,-100.00,NNE,13,4.0,5.0,56,-99.99,,,0.02,0.000000,,2013-01-03 03:52:00,
2013-01-02 21:32:00,20.0,5.0,-100.00,North,1,5.0,5.0,51,-99.99,,,0.02,0.000000,,2013-01-03 04:32:00,
2013-01-02 22:33:00,19.0,7.0,-100.00,North,1,5.0,9.0,59,-99.99,,,0.02,0.000000,,2013-01-03 05:33:00,
2013-01-02 23:33:00,21.0,5.0,-100.00,NNW,348,6.0,8.0,50,-99.99,,,0.02,0.000000,,2013-01-03 06:33:00,